Location: Chervonnoye
(48.6000°N, 34.4000°E)
Time: 07:59:05
(UTC+00:00)

KAITUO 1B - Pass Details

Date: 06 December 2021
Orbit: 486 x 507 km, 97.4° (Epoch: 18 January)

Event Time Altitude Azimuth Distance (km) Brightness Sun altitude
Rises 04:05:26 0° 16° (NNE) 2,631 ? -11.7°
Reaches altitude 10° 04:07:35 10° 21° (NNE) 1,737 ? -11.3°
Maximum altitude 04:11:16 57° 100° (E) 601 ? -10.8°
Drops below altitude 10° 04:14:54 10° 180° (S) 1,710 ? -10.2°
Sets 04:17:00 0° 185° (S) 2,585 ? -9.9°
